QPF
0.05 0.06 0.06 0.05 0.05 0.05 0.05 0.04 0.04 0.04 0.03 0.03 0.03 0.02 0.03 0.04 0.04 0.04 0.04 0.04 0.03 0.03 0.02 0.03 0.03 0.03 0.03 0.03 0.03 0.04 0.04 0.04 0.05 0.05 0.04 0.03 0.03 0.04 0.04 0.04 0.05 0.06 0.06
0.06 0.06 0.05 0.05 0.05 0.04 0.03 0.03 0.03 0.04 0.03 0.03 0.02 0.02 0.01 0.02 0.03 0.04 0.04 0.04 0.03 0.02 0.02 0.03 0.03 0.04 0.03 0.03 0.04 0.04 0.04 0.04 0.05 0.05 0.05 0.04 0.03 0.03 0.04 0.04 0.05 0.06 0.07
0.07 0.05 0.06 0.05 0.04 0.03 0.03 0.03 0.03 0.05 0.04 0.03 0.02 0.01 0.01 0.01 0.01 0.03 0.03 0.04 0.03 0.03 0.02 0.02 0.03 0.04 0.05 0.04 0.04 0.04 0.04 0.04 0.04 0.04 0.05 0.05 0.04 0.03 0.03 0.04 0.05 0.05 0.05
0.05 0.05 0.06 0.05 0.04 0.04 0.04 0.05 0.04 0.04 0.05 0.05 0.04 0.02 0.02 0.02 0.02 0.02 0.02 0.01 0.02 0.03 0.04 0.03 0.02 0.03 0.05 0.06 0.05 0.05 0.05 0.05 0.05 0.05 0.04 0.04 0.04 0.03 0.03 0.03 0.04 0.04 0.05
0.04 0.04 0.05 0.05 0.05 0.04 0.04 0.03 0.05 0.06 0.05 0.05 0.04 0.03 0.02 0.02 0.02 0.02 0.02 0.01 0.02 0.02 0.03 0.03 0.02 0.03 0.03 0.05 0.06 0.06 0.08 0.08 0.06 0.05 0.05 0.04 0.04 0.03 0.02 0.03 0.03 0.04 0.05
0.05 0.04 0.04 0.05 0.06 0.05 0.04 0.04 0.05 0.05 0.05 0.05 0.04 0.05 0.05 0.03 0.03 0.04 0.03 0.02 0.02 0.01 0.02 0.03 0.03 0.03 0.03 0.04 0.05 0.06 0.07 0.10 0.09 0.07 0.06 0.05 0.04 0.04 0.03 0.03 0.03 0.04 0.05
0.05 0.05 0.04 0.08 0.07 0.06 0.06 0.06 0.06 0.06 0.06 0.07 0.08 0.07 0.06 0.05 0.04 0.04 0.04 0.03 0.02 0.02 0.03 0.04 0.04 0.04 0.04 0.04 0.04 0.05 0.06 0.08 0.10 0.10 0.08 0.07 0.06 0.05 0.04 0.04 0.04 0.06 0.06
0.06 0.07 0.09 0.11 0.08 0.07 0.07 0.07 0.08 0.07 0.06 0.08 0.09 0.08 0.06 0.05 0.05 0.04 0.04 0.03 0.02 0.02 0.02 0.03 0.04 0.04 0.04 0.04 0.03 0.04 0.05 0.05 0.07 0.09 0.09 0.08 0.07 0.06 0.05 0.05 0.05 0.05 0.06
0.09 0.10 0.11 0.12 0.10 0.08 0.08 0.09 0.10 0.08 0.07 0.08 0.09 0.09 0.07 0.06 0.05 0.04 0.03 0.02 0.02 0.02 0.01 0.01 0.02 0.03 0.02 0.02 0.03 0.04 0.04 0.05 0.05 0.07 0.08 0.08 0.08 0.06 0.04 0.03 0.04 0.04 0.04
0.06 0.08 0.09 0.10 0.11 0.10 0.11 0.08 0.09 0.10 0.08 0.06 0.07 0.07 0.07 0.08 0.08 0.06 0.05 0.03 0.03 0.03 0.03 0.02 0.02 0.03 0.04 0.04 0.04 0.04 0.05 0.04 0.04 0.05 0.05 0.06 0.06 0.07 0.06 0.05 0.03 0.03 0.04
0.08 0.08 0.09 0.09 0.09 0.08 0.09 0.08 0.08 0.08 0.07 0.06 0.06 0.06 0.08 0.09 0.10 0.08 0.07 0.07 0.06 0.05 0.04 0.04 0.04 0.05 0.06 0.07 0.07 0.04 0.04 0.04 0.03 0.04 0.04 0.04 0.05 0.05 0.06 0.06 0.06 0.05 0.06
0.07 0.06 0.06 0.06 0.07 0.07 0.08 0.08 0.08 0.07 0.08 0.08 0.08 0.07 0.07 0.08 0.08 0.09 0.08 0.08 0.07 0.06 0.05 0.05 0.05 0.06 0.05 0.06 0.06 0.05 0.04 0.03 0.03 0.03 0.04 0.04 0.03 0.04 0.05 0.05 0.05 0.06 0.07
0.06 0.05 0.04 0.05 0.06 0.06 0.06 0.08 0.08 0.08 0.07 0.07 0.07 0.07 0.06 0.07 0.07 0.08 0.08 0.08 0.07 0.05 0.06 0.05 0.04 0.05 0.05 0.07 0.07 0.07 0.07 0.05 0.04 0.04 0.04 0.04 0.04 0.04 0.05 0.05 0.04 0.04 0.05
0.08 0.07 0.06 0.05 0.05 0.04 0.04 0.06 0.06 0.06 0.06 0.06 0.06 0.06 0.05 0.05 0.06 0.06 0.06 0.06 0.05 0.05 0.05 0.05 0.05 0.05 0.06 0.08 0.09 0.09 0.08 0.07 0.06 0.05 0.04 0.03 0.04 0.04 0.04 0.05 0.05 0.03 0.03
0.06 0.05 0.05 0.04 0.04 0.04 0.04 0.05 0.04 0.04 0.04 0.04 0.04 0.04 0.05 0.05 0.05 0.04 0.06 0.07 0.06 0.05 0.04 0.04 0.04 0.03 0.04 0.05 0.05 0.05 0.07 0.08 0.06 0.04 0.04 0.03 0.03 0.04 0.03 0.03 0.04 0.04 0.03
0.06 0.05 0.05 0.05 0.04 0.04 0.04 0.05 0.05 0.05 0.05 0.05 0.04 0.05 0.05 0.04 0.04 0.04 0.04 0.05 0.06 0.06 0.04 0.02 0.03 0.03 0.06 0.05 0.04 0.04 0.05 0.07 0.06 0.05 0.04 0.04 0.04 0.04 0.03 0.02 0.02 0.04 0.04
0.07 0.06 0.04 0.04 0.03 0.04 0.05 0.05 0.06 0.06 0.05 0.04 0.04 0.05 0.04 0.04 0.06 0.05 0.05 0.05 0.07 0.08 0.06 0.03 0.04 0.05 0.07 0.07 0.05 0.06 0.06 0.06 0.07 0.06 0.05 0.05 0.05 0.05 0.03 0.02 0.02 0.02 0.03
0.09 0.06 0.04 0.03 0.03 0.03 0.04 0.04 0.03 0.03 0.04 0.04 0.04 0.05 0.04 0.05 0.07 0.08 0.08 0.07 0.06 0.07 0.07 0.05 0.05 0.06 0.07 0.07 0.08 0.09 0.07 0.04 0.06 0.07 0.07 0.06 0.07 0.05 0.03 0.02 0.01 0.01 0.01
0.06 0.04 0.03 0.03 0.03 0.03 0.04 0.03 0.03 0.03 0.04 0.04 0.05 0.05 0.05 0.07 0.08 0.09 0.08 0.07 0.05 0.05 0.06 0.06 0.06 0.06 0.07 0.08 0.11 0.10 0.09 0.07 0.05 0.06 0.09 0.08 0.08 0.06 0.03 0.01 0.01 0.00 0.00
0.04 0.03 0.03 0.03 0.03 0.03 0.02 0.02 0.02 0.03 0.04 0.05 0.05 0.06 0.07 0.07 0.07 0.07 0.06 0.06 0.06 0.06 0.07 0.08 0.07 0.08 0.09 0.10 0.13 0.11 0.10 0.10 0.06 0.04 0.07 0.09 0.08 0.06 0.03 0.01 0.01 0.00 0.00
0.05 0.04 0.03 0.03 0.04 0.02 0.02 0.02 0.02 0.03 0.05 0.06 0.06 0.06 0.07 0.06 0.05 0.05 0.04 0.04 0.05 0.06 0.06 0.07 0.08 0.09 0.09 0.11 0.10 0.09 0.09 0.08 0.07 0.05 0.06 0.05 0.05 0.05 0.05 0.04 0.02 0.01 0.01
0.08 0.06 0.05 0.05 0.05 0.03 0.02 0.03 0.03 0.03 0.04 0.05 0.06 0.08 0.07 0.06 0.04 0.03 0.02 0.03 0.04 0.05 0.05 0.06 0.05 0.06 0.07 0.08 0.08 0.07 0.08 0.07 0.06 0.05 0.05 0.05 0.04 0.04 0.05 0.05 0.04 0.03 0.02
0.06 0.06 0.06 0.06 0.05 0.04 0.02 0.02 0.02 0.03 0.05 0.06 0.08 0.08 0.06 0.05 0.04 0.03 0.02 0.02 0.03 0.03 0.03 0.04 0.04 0.04 0.04 0.06 0.06 0.06 0.06 0.06 0.05 0.05 0.06 0.05 0.05 0.05 0.04 0.04 0.04 0.03 0.03
0.05 0.05 0.06 0.06 0.05 0.03 0.02 0.03 0.03 0.03 0.04 0.06 0.06 0.05 0.05 0.05 0.04 0.03 0.02 0.02 0.02 0.02 0.02 0.02 0.03 0.03 0.04 0.05 0.06 0.07 0.07 0.06 0.05 0.06 0.07 0.06 0.06 0.06 0.04 0.04 0.03 0.02 0.01
0.05 0.05 0.06 0.05 0.04 0.03 0.03 0.03 0.04 0.04 0.05 0.04 0.03 0.03 0.03 0.03 0.03 0.03 0.03 0.03 0.03 0.03 0.02 0.01 0.01 0.02 0.03 0.03 0.04 0.06 0.07 0.07 0.06 0.06 0.07 0.08 0.06 0.05 0.06 0.06 0.04 0.01 0.01
0.05 0.05 0.06 0.06 0.05 0.05 0.04 0.04 0.04 0.04 0.04 0.04 0.04 0.04 0.03 0.02 0.02 0.03 0.04 0.04 0.04 0.04 0.03 0.03 0.03 0.03 0.04 0.04 0.04 0.06 0.06 0.07 0.07 0.07 0.07 0.08 0.08 0.07 0.06 0.06 0.05 0.03 0.02
MSLP
1009.38 1009.80 1010.13 1010.39 1010.59 1010.77 1010.94 1011.11 1011.29 1011.45 1011.59 1011.70 1011.77 1011.81 1011.85 1011.90 1011.98 1012.12 1012.30 1012.52 1012.75 1012.99 1013.18 1013.33 1013.42 1013.46 1013.47 1013.49 1013.52 1013.60 1013.74 1013.95 1014.24 1014.59 1014.97 1015.39 1015.81 1016.21 1016.61 1016.96 1017.29 1017.59 1017.86
1009.23 1009.64 1009.97 1010.22 1010.42 1010.59 1010.75 1010.93 1011.11 1011.31 1011.49 1011.64 1011.76 1011.84 1011.89 1011.93 1011.99 1012.07 1012.19 1012.35 1012.52 1012.70 1012.85 1012.97 1013.02 1013.03 1013.00 1012.96 1012.93 1012.94 1013.02 1013.18 1013.43 1013.76 1014.16 1014.60 1015.06 1015.52 1015.97 1016.37 1016.74 1017.07 1017.37
1009.07 1009.47 1009.80 1010.06 1010.27 1010.44 1010.61 1010.80 1011.00 1011.23 1011.45 1011.65 1011.81 1011.92 1011.98 1012.01 1012.02 1012.04 1012.08 1012.15 1012.25 1012.36 1012.47 1012.55 1012.58 1012.57 1012.50 1012.42 1012.33 1012.28 1012.29 1012.39 1012.59 1012.89 1013.28 1013.73 1014.23 1014.73 1015.23 1015.69 1016.11 1016.50 1016.84
1008.88 1009.29 1009.63 1009.90 1010.11 1010.29 1010.47 1010.66 1010.88 1011.13 1011.39 1011.62 1011.82 1011.96 1012.03 1012.04 1012.01 1011.95 1011.91 1011.90 1011.92 1011.97 1012.03 1012.08 1012.10 1012.08 1012.01 1011.89 1011.77 1011.67 1011.62 1011.65 1011.79 1012.04 1012.40 1012.85 1013.35 1013.89 1014.43 1014.95 1015.43 1015.87 1016.26
1008.65 1009.06 1009.41 1009.70 1009.93 1010.12 1010.29 1010.48 1010.70 1010.95 1011.23 1011.49 1011.71 1011.87 1011.96 1011.95 1011.89 1011.78 1011.67 1011.57 1011.52 1011.51 1011.54 1011.57 1011.60 1011.59 1011.52 1011.41 1011.27 1011.14 1011.04 1011.01 1011.09 1011.28 1011.60 1012.02 1012.52 1013.07 1013.64 1014.19 1014.73 1015.21 1015.65
1008.39 1008.80 1009.17 1009.47 1009.71 1009.90 1010.06 1010.23 1010.43 1010.67 1010.95 1011.22 1011.46 1011.64 1011.73 1011.73 1011.65 1011.50 1011.33 1011.18 1011.07 1011.02 1011.02 1011.05 1011.09 1011.10 1011.07 1010.99 1010.87 1010.72 1010.60 1010.53 1010.55 1010.69 1010.95 1011.33 1011.80 1012.34 1012.91 1013.49 1014.05 1014.57 1015.05
1008.11 1008.52 1008.91 1009.23 1009.47 1009.65 1009.79 1009.94 1010.11 1010.32 1010.57 1010.85 1011.10 1011.29 1011.40 1011.41 1011.31 1011.15 1010.95 1010.75 1010.60 1010.51 1010.49 1010.52 1010.59 1010.64 1010.65 1010.62 1010.54 1010.42 1010.31 1010.22 1010.21 1010.31 1010.52 1010.85 1011.27 1011.78 1012.33 1012.89 1013.45 1013.98 1014.47
1007.83 1008.26 1008.66 1008.99 1009.24 1009.42 1009.54 1009.65 1009.78 1009.95 1010.18 1010.44 1010.69 1010.90 1011.02 1011.04 1010.96 1010.78 1010.56 1010.33 1010.14 1010.02 1009.97 1010.01 1010.09 1010.18 1010.25 1010.29 1010.27 1010.21 1010.13 1010.07 1010.05 1010.12 1010.29 1010.57 1010.95 1011.40 1011.91 1012.43 1012.96 1013.47 1013.93
1007.60 1008.03 1008.45 1008.80 1009.05 1009.23 1009.33 1009.41 1009.50 1009.64 1009.83 1010.07 1010.32 1010.54 1010.68 1010.71 1010.64 1010.46 1010.22 1009.95 1009.73 1009.56 1009.49 1009.50 1009.59 1009.71 1009.84 1009.94 1010.00 1010.01 1010.00 1009.99 1010.00 1010.08 1010.23 1010.47 1010.80 1011.19 1011.64 1012.11 1012.58 1013.03 1013.47
1007.42 1007.86 1008.29 1008.65 1008.92 1009.09 1009.19 1009.25 1009.31 1009.42 1009.59 1009.81 1010.04 1010.26 1010.41 1010.46 1010.39 1010.21 1009.95 1009.65 1009.37 1009.16 1009.03 1009.00 1009.07 1009.20 1009.36 1009.51 1009.65 1009.75 1009.82 1009.88 1009.95 1010.05 1010.21 1010.44 1010.73 1011.07 1011.46 1011.86 1012.27 1012.67 1013.04
1007.31 1007.75 1008.18 1008.55 1008.83 1009.01 1009.11 1009.16 1009.21 1009.30 1009.44 1009.64 1009.86 1010.07 1010.23 1010.28 1010.21 1010.03 1009.75 1009.41 1009.08 1008.80 1008.60 1008.51 1008.53 1008.63 1008.79 1008.98 1009.17 1009.34 1009.49 1009.63 1009.77 1009.92 1010.11 1010.34 1010.61 1010.93 1011.26 1011.61 1011.96 1012.30 1012.63
1007.26 1007.68 1008.10 1008.48 1008.77 1008.96 1009.07 1009.12 1009.16 1009.23 1009.35 1009.52 1009.73 1009.93 1010.08 1010.13 1010.07 1009.87 1009.58 1009.21 1008.83 1008.47 1008.19 1008.02 1007.96 1008.00 1008.13 1008.31 1008.52 1008.74 1008.95 1009.16 1009.37 1009.58 1009.81 1010.07 1010.35 1010.64 1010.95 1011.26 1011.57 1011.87 1012.17
1007.28 1007.67 1008.07 1008.44 1008.73 1008.93 1009.05 1009.10 1009.13 1009.17 1009.27 1009.41 1009.58 1009.76 1009.89 1009.95 1009.89 1009.69 1009.39 1009.00 1008.57 1008.16 1007.81 1007.54 1007.39 1007.35 1007.40 1007.54 1007.73 1007.96 1008.20 1008.45 1008.71 1008.98 1009.25 1009.54 1009.84 1010.14 1010.45 1010.74 1011.04 1011.33 1011.61
1007.37 1007.72 1008.09 1008.44 1008.73 1008.92 1009.03 1009.07 1009.08 1009.09 1009.14 1009.23 1009.36 1009.51 1009.62 1009.67 1009.61 1009.43 1009.14 1008.76 1008.32 1007.87 1007.45 1007.10 1006.85 1006.71 1006.67 1006.74 1006.87 1007.07 1007.30 1007.56 1007.84 1008.14 1008.44 1008.76 1009.08 1009.40 1009.71 1010.03 1010.33 1010.63 1010.93
1007.56 1007.86 1008.19 1008.51 1008.77 1008.95 1009.04 1009.05 1009.02 1008.99 1008.97 1008.99 1009.06 1009.15 1009.23 1009.27 1009.22 1009.08 1008.83 1008.47 1008.05 1007.59 1007.14 1006.73 1006.40 1006.17 1006.03 1005.99 1006.05 1006.17 1006.35 1006.59 1006.85 1007.15 1007.46 1007.78 1008.12 1008.45 1008.79 1009.13 1009.46 1009.79 1010.13
1007.85 1008.11 1008.40 1008.68 1008.91 1009.06 1009.12 1009.09 1008.99 1008.88 1008.78 1008.71 1008.69 1008.71 1008.75 1008.77 1008.75 1008.65 1008.45 1008.16 1007.79 1007.36 1006.91 1006.47 1006.09 1005.77 1005.54 1005.40 1005.35 1005.39 1005.49 1005.67 1005.88 1006.14 1006.43 1006.74 1007.06 1007.40 1007.75 1008.10 1008.47 1008.84 1009.22
1008.25 1008.47 1008.73 1008.99 1009.18 1009.29 1009.30 1009.21 1009.05 1008.84 1008.63 1008.46 1008.35 1008.29 1008.27 1008.27 1008.27 1008.21 1008.08 1007.86 1007.57 1007.19 1006.78 1006.35 1005.93 1005.55 1005.25 1005.02 1004.87 1004.82 1004.83 1004.92 1005.07 1005.26 1005.49 1005.75 1006.04 1006.35 1006.69 1007.05 1007.42 1007.82 1008.24
1008.71 1008.93 1009.18 1009.41 1009.58 1009.65 1009.61 1009.46 1009.21 1008.91 1008.60 1008.32 1008.10 1007.95 1007.88 1007.85 1007.85 1007.83 1007.76 1007.62 1007.40 1007.10 1006.73 1006.31 1005.89 1005.49 1005.13 1004.83 1004.61 1004.47 1004.41 1004.41 1004.47 1004.59 1004.74 1004.93 1005.15 1005.41 1005.71 1006.04 1006.40 1006.81 1007.24
1009.21 1009.43 1009.67 1009.90 1010.05 1010.11 1010.03 1009.83 1009.52 1009.14 1008.73 1008.35 1008.04 1007.81 1007.67 1007.60 1007.59 1007.59 1007.55 1007.47 1007.30 1007.05 1006.73 1006.34 1005.92 1005.51 1005.12 1004.78 1004.51 1004.31 1004.18 1004.11 1004.11 1004.14 1004.21 1004.32 1004.46 1004.64 1004.86 1005.13 1005.46 1005.83 1006.26
1009.67 1009.90 1010.16 1010.39 1010.55 1010.59 1010.51 1010.28 1009.93 1009.49 1009.02 1008.57 1008.17 1007.87 1007.67 1007.55 1007.51 1007.50 1007.47 1007.40 1007.26 1007.03 1006.73 1006.35 1005.94 1005.51 1005.11 1004.75 1004.46 1004.23 1004.07 1003.96 1003.90 1003.87 1003.87 1003.89 1003.93 1004.02 1004.15 1004.34 1004.60 1004.92 1005.31
1010.03 1010.29 1010.57 1010.81 1010.99 1011.05 1010.97 1010.74 1010.38 1009.93 1009.43 1008.93 1008.49 1008.13 1007.87 1007.71 1007.62 1007.57 1007.51 1007.41 1007.25 1007.00 1006.67 1006.28 1005.85 1005.42 1005.01 1004.65 1004.35 1004.12 1003.95 1003.83 1003.75 1003.68 1003.62 1003.57 1003.53 1003.51 1003.55 1003.64 1003.81 1004.07 1004.41
1010.28 1010.55 1010.85 1011.11 1011.31 1011.40 1011.35 1011.15 1010.81 1010.38 1009.89 1009.39 1008.93 1008.53 1008.23 1008.02 1007.87 1007.75 1007.63 1007.46 1007.23 1006.93 1006.54 1006.10 1005.63 1005.17 1004.75 1004.39 1004.10 1003.88 1003.73 1003.62 1003.54 1003.46 1003.37 1003.26 1003.15 1003.05 1002.99 1002.99 1003.07 1003.25 1003.51
1010.44 1010.72 1011.02 1011.30 1011.52 1011.63 1011.62 1011.46 1011.17 1010.78 1010.32 1009.84 1009.39 1008.99 1008.66 1008.40 1008.18 1007.99 1007.78 1007.53 1007.20 1006.80 1006.33 1005.81 1005.29 1004.78 1004.33 1003.97 1003.69 1003.49 1003.37 1003.28 1003.22 1003.14 1003.04 1002.91 1002.75 1002.59 1002.44 1002.35 1002.35 1002.45 1002.65
1010.58 1010.85 1011.14 1011.42 1011.65 1011.78 1011.80 1011.69 1011.45 1011.10 1010.69 1010.25 1009.81 1009.42 1009.07 1008.77 1008.50 1008.23 1007.93 1007.58 1007.15 1006.65 1006.09 1005.49 1004.89 1004.33 1003.85 1003.46 1003.18 1002.99 1002.89 1002.83 1002.79 1002.73 1002.63 1002.48 1002.30 1002.09 1001.89 1001.73 1001.65 1001.67 1001.81
1010.79 1011.03 1011.30 1011.57 1011.79 1011.93 1011.95 1011.87 1011.66 1011.35 1010.97 1010.57 1010.15 1009.76 1009.40 1009.07 1008.75 1008.42 1008.05 1007.62 1007.11 1006.53 1005.89 1005.22 1004.55 1003.95 1003.42 1003.00 1002.70 1002.51 1002.41 1002.36 1002.33 1002.27 1002.18 1002.03 1001.83 1001.59 1001.35 1001.15 1001.01 1000.97 1001.04
1011.14 1011.36 1011.60 1011.84 1012.03 1012.15 1012.17 1012.07 1011.87 1011.57 1011.20 1010.80 1010.39 1009.99 1009.62 1009.27 1008.92 1008.56 1008.15 1007.67 1007.13 1006.50 1005.82 1005.11 1004.41 1003.76 1003.19 1002.74 1002.41 1002.19 1002.06 1001.99 1001.95 1001.88 1001.78 1001.62 1001.41 1001.15 1000.89 1000.65 1000.46 1000.37 1000.38
Thickness
5733 5732 5729 5727 5726 5725 5723 5721 5721 5720 5719 5718 5718 5718 5718 5716 5715 5714 5712 5711 5710 5708 5707 5706 5705 5704 5704 5703 5703 5702 5702 5702 5701 5700 5700 5699 5699 5699 5699 5699 5699 5699 5699
5729 5727 5724 5723 5722 5720 5719 5717 5716 5716 5715 5714 5714 5714 5713 5712 5711 5709 5708 5707 5706 5705 5704 5703 5702 5701 5700 5700 5700 5700 5699 5699 5698 5697 5697 5696 5696 5696 5696 5696 5697 5697 5697
5724 5721 5720 5718 5717 5716 5714 5713 5712 5711 5710 5709 5709 5709 5709 5709 5707 5706 5704 5703 5702 5701 5701 5700 5699 5697 5696 5697 5696 5696 5696 5695 5695 5694 5694 5693 5693 5693 5693 5693 5694 5694 5694
5719 5716 5715 5713 5712 5710 5709 5708 5706 5704 5703 5702 5702 5703 5704 5704 5703 5702 5700 5699 5699 5698 5697 5696 5695 5694 5692 5692 5692 5692 5692 5691 5691 5691 5690 5690 5690 5690 5690 5690 5690 5691 5691
5714 5711 5709 5708 5707 5705 5704 5703 5701 5698 5696 5696 5696 5698 5698 5699 5699 5698 5696 5695 5695 5694 5693 5692 5690 5689 5688 5687 5688 5688 5687 5687 5686 5686 5686 5686 5686 5686 5686 5686 5687 5687 5687
5709 5707 5705 5702 5701 5699 5698 5696 5695 5694 5692 5691 5692 5693 5693 5694 5694 5693 5692 5691 5691 5689 5688 5687 5685 5684 5683 5683 5683 5683 5682 5682 5682 5682 5681 5682 5682 5682 5682 5682 5682 5683 5683
5704 5702 5699 5697 5695 5693 5692 5691 5689 5687 5687 5687 5684 5683 5687 5689 5689 5688 5687 5686 5685 5684 5683 5682 5681 5679 5678 5677 5677 5677 5676 5677 5676 5676 5676 5676 5676 5676 5677 5677 5678 5678 5679
5700 5698 5694 5692 5690 5689 5687 5686 5683 5681 5681 5681 5677 5673 5673 5676 5680 5684 5682 5680 5679 5678 5677 5676 5676 5674 5673 5672 5671 5670 5670 5670 5670 5671 5671 5671 5671 5671 5671 5672 5673 5673 5674
5696 5694 5691 5688 5686 5684 5682 5681 5679 5676 5673 5675 5674 5667 5662 5662 5668 5674 5675 5674 5673 5672 5671 5670 5670 5669 5667 5665 5665 5664 5663 5663 5664 5664 5665 5665 5665 5665 5666 5666 5667 5668 5669
5692 5690 5688 5685 5683 5681 5678 5677 5676 5673 5670 5667 5667 5667 5664 5662 5656 5659 5664 5666 5666 5665 5665 5665 5664 5662 5660 5659 5658 5658 5657 5656 5657 5658 5658 5658 5659 5659 5660 5661 5661 5663 5664
5688 5686 5684 5682 5679 5677 5674 5673 5671 5669 5666 5662 5660 5660 5659 5657 5655 5650 5650 5654 5656 5657 5658 5657 5656 5655 5654 5652 5652 5651 5651 5650 5650 5650 5650 5651 5652 5652 5653 5654 5655 5657 5658
5683 5682 5680 5677 5675 5672 5670 5668 5666 5664 5661 5658 5656 5654 5652 5649 5647 5645 5643 5644 5644 5647 5650 5650 5649 5648 5647 5646 5645 5645 5644 5643 5643 5643 5643 5644 5644 5645 5646 5648 5649 5650 5652
5678 5677 5675 5673 5670 5668 5666 5664 5662 5659 5656 5653 5650 5649 5647 5645 5643 5640 5637 5636 5636 5639 5640 5641 5642 5641 5640 5639 5638 5638 5637 5637 5637 5637 5636 5637 5638 5639 5639 5641 5642 5644 5645
5675 5673 5670 5668 5666 5664 5662 5659 5656 5654 5652 5649 5646 5643 5641 5640 5638 5635 5632 5628 5626 5629 5630 5631 5633 5633 5633 5632 5632 5631 5630 5630 5629 5630 5630 5630 5631 5632 5633 5634 5635 5637 5639
5673 5670 5666 5664 5662 5659 5657 5654 5650 5647 5645 5643 5640 5637 5635 5633 5632 5631 5628 5624 5618 5615 5618 5622 5622 5625 5625 5625 5625 5624 5623 5623 5623 5623 5623 5624 5625 5625 5626 5627 5628 5630 5631
5668 5665 5662 5660 5657 5654 5651 5648 5644 5642 5639 5636 5634 5630 5628 5626 5624 5623 5621 5619 5615 5611 5609 5614 5615 5617 5617 5617 5617 5617 5617 5617 5617 5618 5618 5618 5618 5618 5619 5620 5621 5622 5624
5663 5660 5658 5655 5652 5649 5646 5643 5640 5637 5633 5630 5628 5625 5622 5619 5616 5615 5613 5611 5609 5605 5602 5605 5607 5608 5607 5607 5608 5609 5610 5610 5610 5612 5612 5612 5612 5612 5613 5613 5614 5615 5616
5659 5656 5653 5650 5648 5645 5642 5638 5635 5632 5628 5624 5622 5618 5615 5613 5608 5606 5604 5602 5601 5599 5596 5594 5596 5597 5598 5599 5599 5600 5601 5603 5604 5605 5605 5606 5607 5607 5607 5607 5607 5608 5609
5655 5653 5650 5647 5644 5641 5637 5633 5630 5627 5623 5620 5616 5612 5609 5605 5601 5599 5596 5594 5593 5592 5589 5587 5587 5588 5589 5590 5590 5591 5592 5593 5595 5596 5597 5598 5599 5599 5599 5600 5600 5601 5602
5652 5649 5646 5643 5640 5635 5631 5627 5624 5621 5618 5614 5611 5607 5603 5598 5594 5592 5590 5586 5584 5582 5580 5579 5579 5579 5579 5580 5579 5579 5580 5581 5583 5586 5587 5588 5589 5590 5591 5592 5593 5594 5595
5649 5645 5642 5639 5635 5630 5625 5620 5617 5616 5611 5608 5604 5601 5596 5592 5587 5584 5581 5577 5575 5572 5571 5569 5568 5568 5568 5567 5566 5567 5568 5570 5572 5575 5575 5578 5579 5580 5581 5583 5584 5586 5588
5644 5641 5637 5633 5629 5624 5618 5614 5611 5608 5605 5601 5598 5594 5590 5586 5581 5577 5573 5570 5567 5563 5562 5560 5559 5557 5557 5557 5558 5558 5557 5559 5561 5565 5565 5567 5570 5572 5574 5576 5578 5579 5581
5640 5636 5633 5629 5624 5618 5614 5610 5606 5603 5600 5596 5591 5587 5583 5579 5573 5569 5566 5564 5560 5558 5555 5552 5550 5549 5549 5550 5549 5549 5549 5549 5551 5555 5556 5558 5560 5562 5566 5570 5571 5573 5574
5636 5632 5629 5625 5620 5614 5609 5605 5601 5598 5594 5590 5586 5581 5575 5570 5566 5561 5559 5556 5554 5552 5550 5547 5545 5544 5544 5544 5543 5542 5542 5543 5546 5548 5549 5549 5552 5555 5559 5562 5565 5566 5567
5632 5629 5626 5621 5616 5609 5604 5599 5595 5592 5588 5584 5580 5575 5569 5563 5558 5554 5552 5549 5547 5545 5545 5543 5540 5539 5539 5538 5536 5534 5534 5534 5536 5539 5542 5542 5545 5547 5550 5553 5556 5558 5560
5630 5627 5623 5618 5613 5605 5599 5594 5588 5585 5581 5577 5573 5567 5562 5557 5552 5548 5544 5542 5540 5539 5538 5537 5536 5535 5535 5534 5531 5528 5527 5527 5528 5530 5534 5533 5536 5538 5541 5546 5548 5549 5551